Showing default

COSMOS 1690, 16138

Orbit data source: Space-Track

COSMOS 1690, 16138 is a payload satellite owned by GUKOS (CIS) in LEO that was launched on Wed, 09 Oct 1985 UTC via a TSIKLON-3 launch vehicle from the Plesetsk Missile And Space Complex (PKMTR). Payload-class satellites include a variety of spacecraft equipped with specific instruments for various scientific and technological missions. These include communications satellites like Starlink; space stations such as the ISS; scientific satellites like the Hubble; Earth observation satellites from companies like Planet Labs, Umbra, and HawkEye 360; GPS; miniature CubeSats for education and research; and military/defense satellites.

Loading next visibility...
Identifier
16138, 1985-094A
Orbit
LEO
Country
Flag of CISCIS
Related business
Manufacturer
NPO PM
Mission
Defense Communications
Bus & Motor
STRELA-3, Unknown motor
Mass
225 kg wet, 225 kg dry
Launch date (UTC)
1985-10-09 (40 years ago)
Launch vehicle
TSIKLON-3
Launch site
Plesetsk Missile And Space Complex (PKMTR)
Object type
Payload
Rocket body
Debris
Shape & HBR
Cyl, 0.8 m
Radar Cross Section
1.257 m², Large (>1 m²)

Expand to show TLE details & history
Last TLE update: 9 hours ago

TLE from 9 hours ago
0 COSMOS 1690
1 16138U 85094A   25242.89772089  .00000034  00000-0  12389-3 0  9993
2 16138  82.6059  46.8688 0021105 235.6696 242.5510 12.66095010843258
Epoch: 2025-08-30T21:32Z
TLE epoch observation values (Epoch: 2025-08-30T21:32:43.084Z)
Latitude
61.19753°
Longitude
-89.21987°
Altitude
1,415.898 km
Speed
7.155 km/s
True Right ascension
14h 13m 08s
True Declination
61° 03' 52"
Sunlit
Object was in daylight at epoch
Visualization orbit readout
Latitude
Unknown
Longitude
Unknown
Altitude
Unknown
Speed
Unknown
Apparent Right ascension
Unknown
Apparent Declination
Unknown
Sunlit
N/A
Visualization observer readout
Local Sidereal Time
22:14:04
Azimuth
Unknown
Elevation
Unknown
Doppler factor
Unknown
Orbital elements
Apogee altitude
1,411.608 km
Perigee altitude
1,378.797 km
Semi-major axis
7,773.339 km
Eccentricity
0.00211
Inclination
82.6059°
RAAN
46.8688°
Arg. of periapsis
235.6696°
True anomaly
242.33664°
Mean anomaly
242.551°
Eccentric anomaly
242.4438°
Mean motion
3.16688 °/min
Orbital period
113.68 mins
BSTAR
0.00012389
Loading maneuver chart data...
Computing Atmospheric mass density...
Loading historical data...
Loading historical data...
Loading historical data...
Loading historical data...
Loading historical data...
Loading historical data...
Loading historical data...

Documentation

Showing up to 5 results
|